[[{"header":{"parameterUnit":"m.s-1","parameterCategory":1,"la1":30.2991,"la2":30.254,"lo1":-89.0895,"lo2":-89.0444,"dy":0.0017,"dx":0.0017,"nx":28,"ny":28,"refTime":"2025-08-08T21:00:00:Z","depth":0,"parameterNumber":2,"parameterNumberName":"U-component_of_WINDS"},"data":[0,0,0,0,0,0,0,0,0,0,0,0,0,0,0,0,0,0,0,0,0,0,0,0,0,0,0,0,0,0,0,0,0,0,0,0,0,0,0,0,0,0,0,0,0,0,0,0,0,0,0,0,0,0,0,0,0,0,-2.4111,-2.4111,0,-2.4083,-2.4083,-2.4083,-2.3923,-2.3919,-2.3915,-2.3911,-2.3885,-2.3887,-2.389,0,0,0,0,0,0,0,0,0,0,0,0,0,-2.4029,-2.4032,-2.4112,-2.4111,-2.4111,-2.4083,-2.4083,-2.4083,-2.3923,-2.3919,-2.3914,-2.391,-2.3884,-2.3887,-2.389,0,0,0,0,0,0,0,0,0,0,0,0,0,-2.404,-2.4033,-2.4112,-2.4028,-2.402,-2.4083,-2.4083,-2.4082,-2.3924,-2.3919,-2.3913,-2.3907,-2.3882,-2.3887,-2.3891,-2.4033,0,0,-2.3904,-2.3906,0,0,0,0,0,0,0,0,-2.4039,-2.4043,-2.4041,-2.4034,-2.4025,-2.4,-2.4044,-2.4066,-2.3926,-2.3961,-2.3911,-2.3905,-2.3928,-2.3928,-2.3935,-2.4031,-2.403,-2.3904,-2.3907,-2.3909,-2.391,0,0,0,0,0,0,0,-2.4039,-2.4043,-2.41,-2.4041,-2.4031,-2.3993,-2.3988,-2.4047,-2.3977,-2.3957,-2.3946,-2.3944,-2.3923,-2.3932,-2.3934,-2.403,-2.3904,-2.3908,-2.3911,-2.3912,-2.4241,-2.4246,0,0,0,0,0,0,-2.405,-2.4044,-2.4101,-2.4099,-2.4018,-2.3999,-2.3993,-2.4014,-2.3976,-2.3965,-2.3949,-2.3937,-2.3927,-2.3929,-2.3932,-2.4095,-2.3909,-2.3913,-2.3915,-2.4234,-2.4242,-2.4249,0,0,0,0,0,0,-2.4048,-2.4056,-2.4102,-2.4068,-2.4071,-2.4006,-2.4031,-2.4017,-2.4026,-2.397,-2.3957,-2.3971,-2.3923,-2.3926,-2.4009,-2.4092,-2.3915,-2.3919,-2.4227,-2.4237,-2.4245,-2.4422,0,0,0,0,0,0,-2.4047,-2.4057,-2.411,-2.4071,-2.4074,-2.4179,-2.4036,-2.402,-2.4033,-2.4017,-2.3987,-2.3977,-2.3919,-2.4003,-2.4013,-2.4094,-2.3922,-2.4219,-2.4231,-2.4242,-2.4409,-2.4437,-2.446,0,0,0,0,0,-2.4044,-2.4161,-2.4113,-2.4121,-2.4138,-2.4184,-2.4186,-2.4116,-2.4041,-2.4093,-2.4058,-2.3978,-2.4082,-2.4013,-2.4023,-2.4107,-2.4214,-2.4228,-2.4241,-2.4397,-2.4431,-2.446,0,0,0,0,0,0,-2.4212,-2.4154,-2.41,-2.4208,-2.4202,-2.4157,-2.4221,-2.4154,-2.417,-2.4154,-2.4067,-2.4062,-2.4158,-2.414,-2.4065,-2.4242,-2.4134,-2.4151,-2.4249,-2.4281,-2.4306,-2.4308,-2.3926,0,0,0,0,0,-2.4261,-2.4303,-2.4251,-2.4351,-2.435,-2.4287,-2.4305,-2.4251,-2.4242,-2.4239,-2.4209,-2.4204,-2.4235,-2.4257,-2.4283,-2.4406,-2.4397,-2.4469,-2.4495,-2.4516,-2.4531,-2.4594,-2.4626,-2.4294,-2.4294,-2.4294,0,0,-2.4363,-2.4337,-2.4369,-2.4384,-2.4373,-2.4418,-2.4286,-2.434,-2.4373,-2.4247,-2.4322,-2.4301,-2.4289,-2.4393,-2.4437,-2.4382,-2.4621,-2.4534,-2.4551,-2.4554,-2.4612,-2.4643,-2.4671,-2.4303,-2.4302,-2.43,0,0,-2.4573,-2.4558,-2.4638,-2.4631,-2.4616,-2.4573,-2.4593,-2.4558,-2.4539,-2.4614,-2.452,-2.4559,-2.4615,-2.461,-2.4615,-2.4824,-2.4751,-2.4835,-2.4969,-2.5032,-2.5058,-2.5081,-2.5155,-2.5182,-2.485,-2.4851,-2.4851,0,-2.4702,-2.4766,-2.4689,-2.4749,-2.4758,-2.4646,-2.4728,-2.4724,-2.472,-2.4729,-2.4667,-2.4734,-2.4719,-2.4819,-2.487,-2.4879,-2.4898,-2.4837,-2.5061,-2.5083,-2.5103,-2.5172,-2.52,-2.4861,-2.486,-2.4859,-2.4858,0,-2.4925,-2.4971,-2.5038,-2.5035,-2.5052,-2.5123,-2.5058,-2.5085,-2.5031,-2.4995,-2.5072,-2.505,-2.5069,-2.5089,-2.5037,-2.5183,-2.5149,-2.5076,-2.4965,-2.5146,-2.5209,-2.5235,-2.4876,-2.4872,-2.4869,-2.4867,0,0,-2.5236,-2.5191,-2.5217,-2.5214,-2.5191,-2.5225,-2.5291,-2.5309,-2.5334,-2.5335,-2.5388,-2.5438,-2.537,-2.5376,-2.5323,-2.5378,-2.5545,-2.5297,-2.5296,-2.5343,-2.5703,-2.5758,-2.579,-2.5497,-2.5502,-2.5505,-2.5704,0,-2.5436,-2.5545,-2.5478,-2.5598,-2.5639,-2.5535,-2.5592,-2.5585,-2.5554,-2.5585,-2.555,-2.5587,-2.5495,-2.5497,-2.5548,-2.5514,-2.5616,-2.5499,-2.5545,-2.5548,-2.555,-2.5823,-2.588,-2.6069,-2.5728,-2.5733,-2.5736,0,-2.5682,-2.5693,-2.5817,-2.5785,-2.58,-2.5853,-2.5864,-2.5895,-2.5885,-2.5858,-2.5866,-2.5799,-2.5862,-2.5755,-2.5841,-2.5763,-2.5778,-2.5765,-2.577,-2.5771,-2.5651,-2.583,-2.6127,-2.6155,-2.5774,-2.5771,-2.5768,0,-2.5896,-2.5942,-2.6021,-2.6023,-2.5988,-2.6027,-2.6015,-2.5998,-2.6014,-2.6025,-2.6033,-2.6052,-2.6062,-2.6078,-2.6018,-2.5946,-2.6113,-2.6,-2.6092,-2.6094,-2.613,-2.6128,-2.6433,-2.6144,-2.6143,-2.6143,-2.6142,0,-2.6124,-2.6203,-2.6117,-2.6166,-2.6252,-2.6175,-2.6263,-2.624,-2.6226,-2.6269,-2.6181,-2.6223,-2.6142,-2.6177,-2.6131,-2.6209,-2.6215,-2.6195,-2.6181,-2.6202,-2.6204,-2.6209,-2.6194,-2.615,-2.6148,-2.6147,-2.6146,0,-2.6376,-2.6321,-2.6401,-2.6362,-2.6354,-2.6419,-2.6386,-2.643,-2.6393,-2.6449,-2.6457,-2.64,-2.6436,-2.6379,-2.6409,-2.6378,-2.6485,-2.6453,-2.6489,-2.6479,-2.6573,-2.6565,-2.689,-2.6929,-2.6617,-2.662,-2.6622,0,-2.6524,-2.6583,-2.655,-2.6572,-2.6565,-2.6602,-2.6617,-2.6545,-2.6564,-2.6557,-2.6602,-2.6631,-2.665,-2.6713,-2.6674,-2.6697,-2.6663,-2.6776,-2.6666,-2.6684,-2.6663,-2.666,-2.6665,-2.6798,-2.6802,-2.6805,-2.6807,0,-2.6793,-2.6763,-2.6787,-2.6804,-2.6824,-2.6834,-2.6836,-2.686,-2.6784,-2.6811,-2.6846,-2.6861,-2.6891,-2.6921,-2.6934,-2.6921,-2.6853,-2.6843,-2.6865,-2.6885,-2.6903,-2.6893,-2.6549,-2.6835,-2.6832,-2.683,-2.6828,-2.6827,-2.6996,-2.7043,-2.7027,-2.7058,-2.7053,-2.7058,-2.7097,-2.7066,-2.7094,-2.7112,-2.7069,-2.7115,-2.7104,-2.7114,-2.711,-2.7145,-2.7095,-2.7128,-2.7136,-2.7144,-2.7159,-2.6899,-2.7147,-2.7147,-2.7146,-2.7145,-2.7144,0,-2.7258,-2.7243,-2.7273,-2.7279,-2.7304,-2.7237,-2.7237,-2.7262,-2.7304,-2.7299,-2.7319,-2.7361,-2.7389,-2.7354,-2.7376,-2.7412,-2.7381,-2.742,-2.7416,-2.7414,-2.7202,-2.718,-2.7445,-2.7445,-2.7445,-2.7445,-2.7445,-2.7445,-2.7398,-2.7473,-2.7442,-2.7515,-2.7499,-2.7543,-2.7549,-2.7554,-2.7549,-2.7599,-2.7622,-2.7599,-2.7582,-2.7603,-2.7627,-2.7615,-2.7627,-2.7678,-2.7656,-2.7458,-2.7429,-2.7401,-2.7379,-2.7681,-2.7682,-2.7864,-2.7865,-2.7867]},{"header":{"parameterUnit":"m.s-1","parameterCategory":1,"la1":30.2991,"la2":30.254,"lo1":-89.0895,"lo2":-89.0444,"dy":0.0017,"dx":0.0017,"nx":28,"ny":28,"refTime":"2025-08-08T21:00:00:Z","depth":0,"parameterNumber":3,"parameterNumberName":"V-component_of_WINDS"},"data":[0,0,0,0,0,0,0,0,0,0,0,0,0,0,0,0,0,0,0,0,0,0,0,0,0,0,0,0,0,0,0,0,0,0,0,0,0,0,0,0,0,0,0,0,0,0,0,0,0,0,0,0,0,0,0,0,0,0,-0.5934,-0.5935,0,-0.6048,-0.605,-0.6051,-0.6139,-0.6139,-0.614,-0.6141,-0.6261,-0.6263,-0.6265,0,0,0,0,0,0,0,0,0,0,0,0,0,-0.5791,-0.5793,-0.5933,-0.5935,-0.5936,-0.6048,-0.605,-0.6051,-0.6139,-0.6139,-0.614,-0.6141,-0.626,-0.6263,-0.6266,0,0,0,0,0,0,0,0,0,0,0,0,0,-0.5874,-0.5794,-0.5933,-0.5993,-0.6,-0.6048,-0.605,-0.6052,-0.6138,-0.614,-0.6141,-0.6142,-0.6259,-0.6262,-0.6266,-0.6264,0,0,-0.6277,-0.6279,0,0,0,0,0,0,0,0,-0.5869,-0.5879,-0.5983,-0.5989,-0.5997,-0.608,-0.6044,-0.6123,-0.6138,-0.6086,-0.6141,-0.6142,-0.62,-0.6208,-0.6227,-0.627,-0.6275,-0.6278,-0.628,-0.6281,-0.6282,0,0,0,0,0,0,0,-0.5863,-0.5875,-0.5979,-0.5984,-0.5993,-0.6015,-0.6028,-0.6059,-0.6135,-0.609,-0.6097,-0.6109,-0.6204,-0.6224,-0.6231,-0.6277,-0.6277,-0.6281,-0.6283,-0.6284,-0.6324,-0.6322,0,0,0,0,0,0,-0.5848,-0.5869,-0.5975,-0.5982,-0.5934,-0.6016,-0.6031,-0.6052,-0.6135,-0.6148,-0.6108,-0.6113,-0.6217,-0.6226,-0.6235,-0.6239,-0.6281,-0.6285,-0.6287,-0.6325,-0.6323,-0.6322,0,0,0,0,0,0,-0.5845,-0.5857,-0.5971,-0.5928,-0.5944,-0.6018,-0.6041,-0.6054,-0.6074,-0.6148,-0.6162,-0.6114,-0.6218,-0.623,-0.6256,-0.6244,-0.6286,-0.629,-0.6326,-0.6324,-0.6323,-0.6245,0,0,0,0,0,0,-0.584,-0.5855,-0.5855,-0.5927,-0.5946,-0.5989,-0.604,-0.6055,-0.608,-0.6087,-0.6158,-0.617,-0.622,-0.625,-0.626,-0.625,-0.6293,-0.6327,-0.6325,-0.6323,-0.6249,-0.6241,-0.6234,0,0,0,0,0,-0.5835,-0.5829,-0.5854,-0.5867,-0.5947,-0.5988,-0.5999,-0.6056,-0.6078,-0.6079,-0.6126,-0.6168,-0.6244,-0.6252,-0.6264,-0.6255,-0.6329,-0.6326,-0.6323,-0.6252,-0.6242,-0.6234,0,0,0,0,0,0,-0.5754,-0.5839,-0.5869,-0.5886,-0.5929,-0.6003,-0.6005,-0.6043,-0.6082,-0.6087,-0.6156,-0.6171,-0.619,-0.6225,-0.6233,-0.6257,-0.6291,-0.6291,-0.6233,-0.6225,-0.6217,-0.6208,-0.6296,0,0,0,0,0,-0.5738,-0.5764,-0.5837,-0.5845,-0.5865,-0.5931,-0.5951,-0.5991,-0.6039,-0.6058,-0.6107,-0.6152,-0.6187,-0.6208,-0.6243,-0.6254,-0.6271,-0.6254,-0.6246,-0.6239,-0.6238,-0.6247,-0.624,-0.6314,-0.6314,-0.6314,0,0,-0.5706,-0.5756,-0.5768,-0.583,-0.5868,-0.5894,-0.5946,-0.5971,-0.5991,-0.6062,-0.6089,-0.6127,-0.6182,-0.62,-0.6211,-0.623,-0.6221,-0.6236,-0.623,-0.6233,-0.6243,-0.6236,-0.623,-0.6312,-0.6312,-0.6312,0,0,-0.566,-0.57,-0.5711,-0.5748,-0.5804,-0.5848,-0.585,-0.5918,-0.5946,-0.5974,-0.6028,-0.6053,-0.611,-0.6147,-0.6173,-0.6139,-0.6179,-0.6149,-0.6109,-0.6117,-0.6111,-0.6106,-0.6094,-0.6089,-0.6148,-0.6147,-0.6147,0,-0.5613,-0.5653,-0.5712,-0.5733,-0.5759,-0.5824,-0.5835,-0.5868,-0.5934,-0.595,-0.5971,-0.6043,-0.6085,-0.6113,-0.6104,-0.6123,-0.6128,-0.6141,-0.6107,-0.6103,-0.6099,-0.6088,-0.6084,-0.6143,-0.6144,-0.6144,-0.6145,0,-0.5592,-0.5619,-0.5621,-0.5681,-0.5707,-0.5723,-0.5786,-0.5805,-0.5842,-0.5883,-0.5911,-0.5963,-0.601,-0.602,-0.6057,-0.6052,-0.6063,-0.6094,-0.613,-0.6087,-0.6078,-0.6074,-0.6137,-0.6139,-0.614,-0.6141,0,0,-0.55,-0.5591,-0.5591,-0.5619,-0.5686,-0.5708,-0.5727,-0.5772,-0.5787,-0.583,-0.5848,-0.5894,-0.5923,-0.5952,-0.5994,-0.6,-0.597,-0.6031,-0.6033,-0.6018,-0.5968,-0.5944,-0.5939,-0.5996,-0.5996,-0.5995,-0.5964,0,-0.5464,-0.5501,-0.5555,-0.5574,-0.56,-0.5661,-0.5677,-0.572,-0.5759,-0.5787,-0.583,-0.5862,-0.5898,-0.5916,-0.5925,-0.5971,-0.5961,-0.5975,-0.6014,-0.6015,-0.5998,-0.5934,-0.5909,-0.5877,-0.5961,-0.596,-0.596,0,-0.5428,-0.5466,-0.5488,-0.5552,-0.5564,-0.5578,-0.5623,-0.5649,-0.5698,-0.5726,-0.5758,-0.5803,-0.5827,-0.5858,-0.5892,-0.59,-0.5919,-0.5944,-0.5944,-0.5951,-0.5985,-0.5939,-0.5868,-0.5863,-0.5955,-0.5955,-0.5956,0,-0.5358,-0.5415,-0.5436,-0.5457,-0.5532,-0.5541,-0.5572,-0.5623,-0.5646,-0.5686,-0.5702,-0.5743,-0.5766,-0.5798,-0.5853,-0.5871,-0.588,-0.5916,-0.5904,-0.5903,-0.5904,-0.5903,-0.5835,-0.5915,-0.5916,-0.5916,-0.5916,0,-0.5314,-0.5324,-0.5405,-0.5417,-0.5431,-0.5492,-0.5505,-0.5542,-0.5587,-0.5608,-0.5663,-0.5682,-0.5753,-0.578,-0.5823,-0.5844,-0.5854,-0.5877,-0.5889,-0.5873,-0.5869,-0.5886,-0.589,-0.5914,-0.5915,-0.5915,-0.5915,0,-0.5238,-0.5293,-0.5319,-0.5387,-0.5404,-0.5411,-0.547,-0.5485,-0.5526,-0.5552,-0.5562,-0.5628,-0.5662,-0.572,-0.5771,-0.58,-0.5813,-0.5832,-0.5796,-0.5803,-0.5787,-0.5788,-0.5728,-0.5724,-0.5806,-0.5805,-0.5804,0,-0.5206,-0.5216,-0.5285,-0.5302,-0.5331,-0.5359,-0.5383,-0.5443,-0.5466,-0.5522,-0.553,-0.5568,-0.5603,-0.5655,-0.5708,-0.5747,-0.5768,-0.5744,-0.5774,-0.5758,-0.5768,-0.5766,-0.5768,-0.5737,-0.5736,-0.5735,-0.5734,0,-0.5144,-0.517,-0.5201,-0.5241,-0.5268,-0.5303,-0.5341,-0.5352,-0.5421,-0.5444,-0.5479,-0.5505,-0.5557,-0.5595,-0.5642,-0.5675,-0.5716,-0.5724,-0.5724,-0.5707,-0.5686,-0.5697,-0.5777,-0.5726,-0.5726,-0.5727,-0.5728,-0.5728,-0.5089,-0.51,-0.515,-0.5183,-0.5218,-0.5251,-0.5268,-0.5311,-0.5342,-0.5388,-0.5422,-0.5455,-0.5504,-0.5571,-0.5602,-0.5629,-0.5647,-0.5646,-0.5646,-0.5645,-0.5638,-0.5681,-0.5638,-0.5638,-0.5638,-0.5638,-0.5639,0,-0.503,-0.5064,-0.5094,-0.5144,-0.517,-0.5205,-0.5249,-0.5268,-0.5296,-0.5338,-0.537,-0.541,-0.5447,-0.5502,-0.5543,-0.5554,-0.5573,-0.5562,-0.5562,-0.5569,-0.562,-0.5616,-0.5546,-0.5546,-0.5546,-0.5546,-0.5546,-0.5546,-0.5001,-0.5022,-0.5053,-0.5091,-0.5126,-0.5158,-0.518,-0.5212,-0.5245,-0.5287,-0.5317,-0.5353,-0.54,-0.5444,-0.5479,-0.5495,-0.5507,-0.549,-0.5511,-0.5557,-0.5566,-0.5574,-0.5571,-0.5492,-0.5492,-0.5459,-0.5459,-0.5458]}]]